Theta_e
311 310 311 311 310 310 310 310 311 311 312 312 313 313 313 313 312 312 313 313 313 313 313 313 314 314 314 314 314 314 314 315 315 314 314 312 312 312 313 313 313 313 313 313 312 311 310 310 310 310 310 310 311 310 310 310 308 307 307 306 307 307 307 306 306 306 308 308 310 309 308 309 311 313 317 319 320 320 320 320 320 320 320 321 321 321 320
310 310 310 310 310 310 310 310 311 311 311 311 312 312 312 312 312 312 313 313 314 313 313 313 313 313 313 313 314 313 313 314 314 313 313 312 312 312 312 312 312 312 312 311 311 310 310 309 310 309 309 309 310 310 309 309 308 307 307 307 306 307 308 308 307 307 307 307 308 308 308 309 311 310 310 315 319 321 321 321 321 321 321 321 321 321 320
309 309 309 309 310 309 309 310 310 310 311 311 311 312 312 312 312 312 313 313 313 313 313 313 312 312 312 312 312 312 313 313 314 313 312 312 311 311 311 311 311 311 311 310 310 310 309 309 309 309 308 307 309 309 308 307 307 306 306 305 305 306 306 308 307 307 308 308 309 310 310 312 315 315 315 317 319 320 320 320 319 320 321 321 321 320 320
309 309 309 309 309 309 309 309 310 310 311 311 311 311 312 312 312 312 312 312 312 312 312 312 312 312 312 312 312 312 312 312 313 313 312 312 311 311 310 310 310 309 309 310 309 309 309 308 308 308 307 307 308 308 307 307 306 306 305 305 305 306 306 306 306 306 307 307 308 309 310 311 313 315 317 318 318 318 318 318 317 317 320 321 320 319 319
309 309 308 309 309 308 308 309 310 310 310 310 310 310 311 311 311 311 311 311 311 312 312 311 311 312 312 312 312 311 311 311 312 313 312 311 311 311 310 309 309 309 308 309 309 308 308 308 308 307 306 307 308 307 306 306 306 306 306 306 306 307 306 306 306 306 306 307 307 307 308 309 311 313 315 316 317 317 317 318 317 315 316 319 319 319 319
308 308 308 309 308 308 308 309 310 310 310 310 310 310 310 310 310 310 311 311 311 311 311 311 311 311 312 312 312 312 311 311 312 313 312 311 310 310 309 308 308 308 309 309 308 308 308 308 307 306 306 307 307 307 306 307 307 306 306 307 307 307 307 306 306 306 306 306 307 308 308 308 308 310 312 314 316 316 316 317 317 315 313 314 316 318 319
308 307 307 308 307 308 309 309 309 309 309 309 309 309 309 309 310 310 310 310 310 310 311 311 311 311 311 311 311 311 311 311 312 312 311 310 310 309 308 308 308 309 309 308 308 308 307 307 306 305 307 307 307 307 307 307 307 306 306 306 307 307 307 306 307 307 307 307 307 307 307 308 308 308 310 312 314 315 316 315 316 316 314 313 314 316 317
307 306 306 307 307 308 308 309 308 308 308 307 307 308 308 309 309 309 309 309 309 310 310 309 310 310 310 310 310 309 310 310 311 311 311 310 309 308 308 308 308 308 308 307 307 307 307 306 306 306 306 306 306 307 307 307 307 307 306 306 306 306 307 306 307 307 308 308 308 307 307 307 308 308 309 311 313 314 315 315 315 315 314 314 315 316 317
306 306 306 307 307 308 308 308 309 308 308 308 308 308 308 308 309 309 308 308 308 309 309 308 309 309 309 309 309 308 308 308 308 309 309 309 308 308 308 308 307 307 306 306 306 306 306 306 306 306 306 306 306 307 307 307 307 307 306 306 306 306 306 306 306 307 308 308 307 307 307 307 307 308 308 309 311 313 314 314 314 314 314 314 314 315 316
305 305 305 306 307 307 307 308 308 308 308 308 308 307 307 307 308 307 307 307 307 308 308 307 308 308 308 308 308 307 306 306 306 306 306 306 306 306 306 306 306 305 305 305 305 305 305 305 305 305 305 306 306 306 306 307 307 307 306 306 306 306 306 306 307 307 308 307 307 307 307 307 306 307 308 308 310 313 313 313 313 313 313 313 313 314 315
305 305 305 306 306 306 307 307 307 307 307 307 307 306 305 305 306 306 306 306 307 307 307 307 307 307 307 307 307 306 306 305 305 305 305 305 305 305 304 304 304 304 304 304 304 303 304 304 305 305 305 305 305 305 306 306 306 306 306 306 306 306 306 305 306 307 307 307 307 306 306 306 305 307 308 308 310 312 312 312 313 312 312 313 313 313 314
305 305 305 305 305 306 307 306 306 306 306 305 305 304 304 304 305 305 304 305 305 305 306 306 306 305 306 306 306 305 305 305 305 305 305 304 305 304 304 304 304 304 304 303 303 303 304 304 305 305 305 304 304 305 305 305 305 306 306 306 305 305 305 305 305 306 307 307 308 307 306 305 305 306 308 309 310 312 312 312 312 312 312 312 312 312 312
305 305 304 304 305 305 306 305 304 305 305 305 304 303 303 304 305 304 304 304 304 304 304 305 305 305 305 305 305 305 305 305 305 304 304 304 304 304 304 303 303 303 303 303 303 304 304 304 304 304 304 305 304 305 305 305 305 305 305 305 305 305 305 305 305 305 306 307 307 307 306 306 305 306 308 310 311 311 312 311 311 311 311 311 311 311 311
304 304 304 304 304 304 304 304 304 304 304 303 303 303 302 303 304 303 303 303 304 303 303 303 304 304 304 304 304 304 304 304 304 304 303 303 303 303 303 303 302 302 302 302 303 303 303 303 303 304 304 304 305 305 305 305 305 305 305 305 305 305 305 305 305 305 306 307 307 307 305 303 304 306 309 311 311 311 311 311 311 311 310 310 310 310 309
303 303 303 303 303 303 303 303 303 303 303 302 302 302 302 302 302 302 302 302 302 302 303 303 303 303 303 303 303 303 303 303 303 303 303 303 303 303 303 302 302 302 302 302 302 302 302 303 303 303 303 304 304 305 305 305 305 304 304 305 305 305 305 305 305 306 306 306 307 307 306 305 305 307 308 310 311 310 310 311 310 309 309 310 310 309 307
302 302 302 302 302 302 302 302 302 301 302 301 301 301 302 301 301 301 301 302 302 302 302 302 302 302 302 302 302 302 302 303 303 303 303 303 302 302 302 302 302 302 301 301 301 301 301 302 303 303 303 303 304 304 304 304 304 304 304 304 304 304 305 305 306 306 306 307 307 307 308 307 307 308 308 309 310 310 310 310 309 309 309 309 307 306 306
301 301 302 302 302 301 301 301 301 301 301 300 300 300 300 300 300 300 300 300 301 300 300 300 301 301 301 301 301 302 302 302 302 302 302 302 302 302 302 302 301 301 301 301 301 301 301 302 302 303 303 303 303 304 304 304 303 304 304 304 304 305 305 305 306 307 307 307 307 307 308 307 308 308 308 309 309 309 309 309 308 308 308 307 306 305 304
300 301 301 301 301 301 300 300 300 300 300 299 299 299 299 299 299 299 299 299 299 299 299 300 300 300 300 300 300 300 300 301 301 301 301 301 301 301 301 301 301 301 301 301 302 302 302 302 302 302 302 303 303 304 304 304 304 304 304 304 304 305 305 305 306 306 307 307 306 306 307 307 307 307 308 308 309 309 309 308 307 307 306 305 305 303 301
299 299 300 300 300 300 300 299 299 299 299 299 299 299 299 299 298 299 299 298 299 299 298 299 299 299 299 299 299 299 300 300 300 300 300 300 300 300 300 301 301 301 301 302 302 302 302 302 302 302 302 303 303 304 304 304 304 304 304 304 304 304 305 305 305 305 306 306 306 306 306 306 307 307 307 308 308 308 308 308 306 305 304 303 303 301 300
298 298 299 299 299 299 299 298 298 299 299 299 298 298 298 298 298 298 298 298 298 298 298 298 298 299 299 299 299 299 299 299 299 299 299 300 300 300 300 300 300 301 301 302 302 302 302 302 302 302 302 302 303 303 304 304 304 304 304 304 304 303 304 304 305 305 305 306 306 306 306 306 306 306 307 307 307 307 307 306 305 303 302 301 300 299 298
297 298 299 299 298 298 299 298 298 298 298 298 298 298 298 298 298 298 298 298 298 298 298 298 298 299 299 299 299 298 299 299 299 299 299 299 299 300 300 300 300 301 301 301 301 302 302 302 302 302 302 302 302 302 303 303 303 303 303 303 303 304 304 304 305 305 306 306 307 307 307 306 306 306 306 306 307 306 305 304 303 302 301 299 298 297 297
297 298 298 298 298 298 298 298 298 298 298 298 298 298 298 298 298 299 299 299 298 299 299 299 299 299 299 299 299 299 299 299 299 299 299 299 299 299 300 300 301 301 301 301 301 301 302 302 302 302 302 302 302 302 302 303 303 303 303 303 303 304 304 304 305 305 305 306 307 307 306 306 305 305 305 305 305 304 303 302 301 300 299 298 297 296 296
297 297 298 298 297 297 298 298 298 298 298 298 298 299 299 299 299 299 299 299 299 299 299 299 299 299 299 299 299 299 299 299 300 300 300 300 300 300 300 300 301 301 301 301 301 301 302 302 302 302 302 302 302 302 303 303 303 303 304 304 304 305 305 305 305 306 306 306 307 306 305 305 305 305 305 303 302 301 300 300 299 298 297 296 296 296 296
297 297 297 298 298 298 298 298 298 298 298 298 298 298 298 298 298 298 298 298 298 298 298 298 298 298 298 298 299 299 299 300 300 300 300 300 300 300 300 300 300 300 300 300 301 301 301 301 301 302 302 302 302 302 302 303 303 303 304 304 305 305 305 305 305 306 306 306 306 305 305 304 304 304 303 301 300 298 298 297 296 296 296 296 296 296 296
298 298 298 298 298 298 298 298 298 298 298 298 298 298 298 297 297 297 297 297 297 298 298 298 298 298 298 298 298 298 299 299 299 299 299 299 299 299 299 299 299 299 300 300 300 300 301 301 301 301 301 302 302 302 302 302 303 303 304 304 305 305 305 305 305 305 306 305 305 304 304 303 302 301 300 299 298 298 297 296 296 296 296 296 296 295 295
298 297 298 297 297 297 297 298 298 298 297 297 297 297 297 297 297 297 297 297 297 297 297 298 298 298 298 298 298 298 298 298 298 298 298 298 298 298 299 299 299 299 299 299 300 300 300 300 300 300 300 301 301 301 301 302 302 303 303 304 304 305 305 305 306 306 306 305 304 303 302 301 300 299 298 298 297 297 296 295 295 295 295 295 296 296 296
297 297 297 297 297 297 297 298 297 297 297 297 297 297 297 297 297 297 297 297 297 297 297 298 298 297 297 297 298 298 298 297 297 297 297 297 297 297 297 298 298 298 298 298 298 298 298 299 299 299 299 300 300 301 301 301 302 302 303 303 304 304 304 305 305 305 305 304 303 301 300 299 298 297 296 296 296 295 295 295 295 296 296 296 296 296 295
296 296 296 297 297 297 297 297 297 297 297 297 297 297 297 297 297 297 297 297 298 297 297 297 297 296 296 296 296 296 296 296 296 296 296 296 296 296 296 296 296 296 297 297 297 297 298 298 299 299 300 300 300 301 301 301 302 302 302 303 303 304 304 304 304 304 302 301 300 299 299 298 297 296 296 296 295 295 296 296 296 296 296 296 296 295 295
296 296 296 296 296 296 297 297 297 297 297 296 296 296 296 296 297 297 297 297 296 296 296 295 295 295 294 294 294 294 293 294 294 294 294 294 294 294 294 294 295 295 295 296 297 297 298 299 299 299 300 300 300 300 301 301 301 301 302 302 302 303 303 303 303 301 300 299 299 298 298 298 297 297 296 296 296 296 296 296 296 296 296 295 295 295 295
296 296 296 296 296 296 296 297 296 296 296 295 295 294 294 295 295 295 295 295 294 294 294 294 293 293 292 292 292 291 291 292 292 292 292 292 293 293 293 294 295 295 296 297 298 298 299 299 299 299 299 299 299 300 300 301 301 301 301 302 302 302 302 301 300 299 298 298 299 298 298 297 296 296 296 295 295 296 295 295 295 296 295 295 295 295 296
296 296 296 296 296 296 296 296 296 295 295 294 294 294 294 294 294 294 294 293 293 293 292 292 292 291 291 291 291 290 291 291 291 292 292 292 293 293 294 295 296 297 297 298 298 298 298 298 298 299 299 298 298 299 299 300 300 300 301 301 301 300 300 299 299 298 298 298 298 297 296 296 296 296 296 296 296 296 296 296 296 296 296 296 296 296 296
296 296 296 296 296 295 295 295 294 294 294 293 293 293 293 293 293 293 293 292 292 292 292 291 291 291 290 290 290 290 291 291 292 292 293 293 294 295 295 296 297 298 298 299 299 299 299 299 299 299 299 298 298 298 298 298 299 299 299 299 298 298 298 298 298 297 297 297 296 296 296 296 296 296 297 297 297 297 297 296 297 297 297 296 297 297 297
296 296 296 296 295 295 295 295 294 294 293 293 293 293 293 293 293 292 292 292 292 292 292 291 291 290 290 290 290 290 291 292 292 293 294 294 294 295 297 298 298 299 299 299 299 299 299 299 299 299 299 299 298 298 298 298 298 298 298 298 298 297 297 297 297 297 297 297 297 297 297 297 297 297 297 297 297 297 297 297 297 297 297 297 297 297 296
296 296 295 295 294 294 294 294 294 293 293 292 292 292 292 292 292 291 291 292 292 292 292 291 291 290 290 290 290 290 291 292 292 292 293 294 295 297 298 299 299 299 299 299 299 299 299 299 299 299 299 299 299 299 298 298 298 298 298 298 298 297 297 297 297 297 297 297 297 297 297 297 297 297 297 297 297 297 297 297 297 297 297 297 298 297 296
296 295 295 295 294 294 294 294 293 293 292 292 292 292 292 292 291 291 291 291 291 291 291 292 291 291 291 291 290 290 290 291 291 292 293 295 296 298 299 299 299 299 299 300 299 299 299 299 299 299 299 299 299 299 299 298 299 298 298 298 298 297 297 297 297 297 297 297 297 297 297 297 297 297 297 298 297 297 297 297 297 297 297 297 297 297 296
295 295 295 295 294 294 294 294 293 293 293 292 292 292 292 292 292 291 291 291 291 291 291 291 292 292 291 291 291 290 290 290 291 293 295 296 298 299 299 299 299 299 299 299 299 298 299 299 299 299 299 299 299 299 299 299 298 298 298 298 298 297 297 297 297 297 297 297 297 297 297 296 296 297 298 298 298 297 297 297 297 297 297 297 296 296 296
295 295 295 294 294 294 294 294 294 294 293 293 293 293 292 292 292 292 291 291 291 291 291 291 291 292 292 292 292 291 292 292 292 294 296 297 298 299 299 299 299 299 299 298 297 297 298 298 298 299 300 300 299 299 299 298 298 298 298 298 298 298 298 297 297 296 296 296 296 295 295 295 296 297 297 298 297 297 297 296 296 296 296 296 296 295 295
295 295 294 294 294 294 294 294 294 294 294 294 293 293 293 293 292 292 292 291 291 291 291 291 291 291 291 292 292 292 292 292 293 294 295 296 297 298 298 297 297 297 297 297 297 298 298 298 298 298 299 300 299 300 300 299 298 297 297 297 298 297 297 297 296 296 296 295 295 295 295 296 296 296 297 297 297 296 296 296 296 296 296 296 295 295 295
294 294 294 294 294 294 294 294 293 294 293 294 293 293 292 292 292 292 292 291 290 291 291 291 291 291 291 291 291 291 292 292 292 293 293 294 295 295 295 295 294 294 294 295 297 298 299 299 299 299 299 299 299 299 299 299 298 297 296 296 296 296 296 296 296 296 295 295 295 296 296 296 296 297 297 296 296 296 296 297 296 296 295 295 294 294 294
294 294 294 294 294 294 294 293 293 293 293 293 292 292 292 291 291 292 292 291 290 290 290 291 291 291 291 290 290 290 291 292 292 292 292 293 293 293 293 294 294 294 294 294 295 296 297 298 298 299 299 299 299 298 298 298 298 297 296 296 295 295 295 295 295 295 295 296 296 296 296 296 297 297 296 296 296 296 296 296 294 294 293 293 293 293 294
294 294 294 294 294 294 294 293 293 293 292 292 292 291 291 291 291 291 291 291 290 290 289 289 290 290 291 291 290 290 290 290 291 291 292 291 291 291 291 292 293 294 294 294 294 295 295 296 297 298 298 298 298 297 297 297 297 296 296 295 295 295 295 295 295 296 296 296 297 297 297 297 296 296 296 296 296 295 294 293 292 292 292 292 293 293 293
295 294 294 295 294 294 294 293 293 292 292 292 291 291 291 290 290 290 290 290 290 290 289 288 288 289 290 290 290 290 290 289 289 290 290 290 290 290 290 290 291 292 293 294 294 294 294 294 295 295 296 297 297 297 296 296 296 296 296 295 295 295 296 296 296 297 297 297 297 297 296 296 296 296 296 295 293 292 291 291 290 291 291 291 292 292 292
295 295 295 295 295 294 294 293 293 292 291 291 291 291 291 290 290 290 289 289 289 290 290 289 289 288 288 288 288 289 289 289 289 289 289 289 289 289 289 289 290 290 291 292 292 293 294 294 294 294 294 294 295 296 297 297 296 296 296 296 296 296 296 296 297 297 297 297 296 296 296 296 295 294 293 292 290 290 290 290 289 289 290 289 290 291 292
295 295 295 295 295 294 294 293 293 292 291 291 291 291 291 290 290 290 289 289 289 289 289 289 289 289 288 287 287 287 287 288 288 288 288 287 287 288 288 289 289 289 289 289 290 290 291 291 292 292 292 291 292 293 295 296 296 296 296 296 296 296 296 296 297 296 296 296 296 295 294 293 292 291 290 290 290 290 290 289 289 289 289 289 289 291 292
295 295 296 295 295 294 294 293 293 292 291 291 290 290 290 290 290 290 290 289 289 288 288 288 289 289 289 288 287 287 286 286 286 287 286 286 286 286 286 287 287 288 288 289 289 289 289 289 289 289 290 290 289 290 291 292 293 294 295 295 295 295 295 295 295 295 294 294 293 292 291 290 289 289 289 289 289 289 289 289 289 290 290 290 291 292 293
296 296 295 295 295 294 294 293 292 291 291 291 291 290 290 290 290 290 290 289 289 289 288 287 287 288 289 289 289 288 287 286 285 285 285 285 285 285 285 286 286 287 287 288 288 288 288 288 288 288 288 289 289 289 289 289 289 290 291 291 291 291 291 291 291 291 291 291 290 289 289 289 289 289 289 289 289 289 289 290 290 290 291 292 293 293 294
296 296 295 295 295 294 293 293 292 291 292 292 292 291 290 290 290 290 290 289 289 289 288 287 286 286 287 287 288 289 288 287 286 285 285 285 285 284 284 285 286 286 286 286 287 287 287 287 288 288 288 288 288 288 288 288 288 289 289 289 289 289 289 289 289 289 289 289 289 289 289 288 289 289 289 288 288 289 290 290 291 291 292 292 293 293 294
296 296 295 295 295 294 293 292 292 292 292 292 292 291 290 290 290 290 290 290 290 289 288 287 286 285 285 285 286 286 287 287 286 285 285 284 284 284 284 284 285 286 286 286 285 286 286 286 286 287 288 288 288 288 288 288 288 288 288 288 289 289 289 288 288 288 288 288 288 288 288 288 288 288 288 287 288 289 290 291 291 291 292 292 292 293 293
295 295 295 295 294 294 293 292 292 293 293 292 291 291 290 290 291 290 290 290 290 290 289 289 288 287 286 285 285 284 285 285 285 285 284 284 284 284 284 284 284 285 285 285 285 285 285 285 286 286 287 287 287 287 288 287 287 287 288 288 288 288 288 288 288 288 288 288 287 287 287 287 287 287 287 287 287 288 288 289 289 290 290 291 292 292 293
294 294 295 294 294 293 293 292 292 293 292 292 291 291 291 291 292 291 290 290 290 290 289 289 288 288 287 286 285 285 284 284 284 284 284 284 283 283 284 284 284 284 285 285 285 285 285 285 285 286 286 286 286 286 286 287 287 287 287 287 287 287 287 287 287 288 288 287 287 287 286 286 286 286 286 286 286 287 287 288 288 288 289 290 291 291 292
294 294 294 294 294 293 293 292 293 293 293 292 292 291 291 291 291 290 289 289 290 290 289 288 288 288 287 286 285 285 284 284 284 284 284 284 284 284 284 284 284 284 284 284 285 285 285 284 284 284 285 285 285 285 285 285 285 286 286 286 286 286 286 286 286 287 286 286 286 286 285 285 285 285 286 286 286 287 287 287 287 288 288 289 289 290 290
294 294 294 293 293 293 293 293 293 293 293 293 292 291 291 291 291 290 289 289 289 290 289 289 288 287 287 286 285 284 284 284 284 283 283 284 284 284 284 284 284 284 283 284 284 284 284 284 284 284 284 284 284 283 283 283 283 284 284 284 285 284 284 284 284 285 285 285 285 285 285 285 285 285 286 286 286 286 286 287 287 288 288 288 289 289 290
Wind_Speed
16 16 16 16 16 15 16 17 17 17 18 19 16 15 16 14 11 13 14 14 14 11 9 9 6 7 9 9 9 11 10 11 11 11 11 10 9 9 9 9 9 8 8 8 8 8 8 7 7 6 6 6 6 6 5 5 3 2 1 1 1 3 4 6 7 10 13 15 16 17 17 15 16 18 16 15 16 18 21 23 25 24 23 23 23 24 25
15 17 17 17 16 17 17 18 19 19 19 20 19 19 20 19 18 18 18 18 17 14 11 12 10 8 9 9 11 12 11 12 14 13 12 11 10 10 9 9 9 8 8 8 7 7 7 6 6 5 5 4 4 4 4 3 2 2 2 2 1 2 3 5 6 6 7 9 10 12 14 13 14 16 14 13 13 15 18 19 21 21 22 23 24 25 25
13 15 17 17 17 18 19 19 20 19 20 20 19 19 18 18 18 18 18 17 14 11 11 13 15 16 15 13 14 15 15 15 16 15 13 12 12 12 10 9 9 8 8 7 7 6 6 5 4 4 3 3 3 3 3 2 2 2 3 4 4 3 3 4 5 5 6 7 7 8 10 10 11 12 12 12 12 14 17 17 17 17 19 21 23 24 24
11 13 16 17 18 18 19 20 20 20 19 17 17 16 15 15 16 15 15 13 11 9 11 13 15 17 18 16 16 18 18 17 17 16 15 13 13 13 12 10 9 8 7 6 6 5 4 4 3 2 2 1 2 2 1 1 1 3 4 5 5 4 5 5 6 6 7 7 8 9 9 10 10 10 11 11 12 13 14 16 17 16 16 18 19 20 23
11 13 15 16 14 14 13 12 13 17 18 18 18 18 17 17 16 13 12 12 10 9 9 10 12 13 14 15 15 16 16 16 16 16 16 14 14 14 13 11 9 8 6 5 5 4 3 3 2 1 1 0 1 1 2 2 2 3 4 5 5 5 6 7 7 8 8 9 9 10 10 10 10 10 11 11 12 13 13 15 17 18 18 18 18 18 22
11 14 14 12 12 12 8 3 4 9 13 14 15 15 15 15 12 10 11 11 11 10 8 9 11 11 11 11 9 9 10 11 13 15 15 15 14 13 12 10 8 7 5 4 3 2 2 1 1 1 1 1 2 2 2 2 3 4 5 5 6 6 7 8 8 9 9 9 10 10 11 11 11 11 12 12 13 13 13 14 16 18 19 19 18 18 21
10 11 11 11 12 10 6 3 2 4 7 9 10 11 12 11 9 10 12 11 11 10 9 10 12 12 11 10 9 10 10 11 12 15 16 15 14 14 12 10 7 5 3 3 1 1 1 2 3 3 2 2 3 3 3 4 5 5 6 6 7 8 9 9 9 9 9 10 10 11 11 12 12 12 13 13 14 14 14 14 15 16 17 18 17 18 21
9 9 9 11 11 7 6 7 5 3 5 7 8 10 10 6 6 8 10 9 8 8 9 9 9 11 11 11 9 8 6 6 8 11 13 11 12 14 13 10 7 6 4 3 2 2 3 4 4 4 4 5 5 5 6 6 7 7 7 8 9 9 9 10 10 10 10 10 11 12 12 12 13 13 13 14 14 14 14 14 14 15 16 17 16 16 19
8 9 10 10 11 11 9 5 2 2 4 5 5 8 8 4 3 6 7 7 7 7 9 10 9 10 10 9 5 0 2 1 2 2 2 2 5 8 10 9 9 8 6 4 3 3 4 5 6 6 7 7 7 7 8 8 8 8 9 9 10 10 10 11 10 10 10 11 11 12 13 13 14 14 14 14 14 14 15 15 15 14 14 16 17 16 17
7 9 10 8 10 10 4 2 5 5 4 4 4 7 6 2 2 6 7 8 8 8 9 10 10 10 9 7 3 2 4 2 1 3 2 0 2 4 7 9 9 8 5 4 4 5 6 8 9 9 9 9 9 10 10 10 10 10 10 11 11 12 12 12 11 11 11 12 12 13 14 14 15 15 15 15 15 15 15 16 16 15 14 15 16 16 17
8 9 9 8 9 5 3 5 4 5 5 5 5 7 5 3 6 9 9 8 8 8 9 10 10 9 7 4 2 4 2 1 2 4 5 6 6 6 7 8 8 7 6 6 8 9 9 10 10 10 10 10 11 12 11 11 11 12 12 13 13 14 14 14 14 14 14 14 15 16 17 17 17 17 16 16 15 15 15 15 15 15 13 13 15 18 22
9 9 8 7 7 2 4 3 2 4 5 5 5 8 3 4 5 7 9 9 9 10 11 11 9 9 7 4 1 3 4 6 8 9 9 10 11 11 11 11 10 9 9 10 11 11 11 11 11 12 12 12 13 14 13 13 13 14 14 15 15 16 16 16 15 15 15 16 16 17 18 19 19 18 17 16 16 15 15 16 15 14 14 14 17 21 24
9 10 9 8 5 2 5 3 3 3 3 3 6 6 3 5 6 7 8 10 11 11 12 11 9 10 11 9 7 8 9 11 12 12 13 13 14 14 14 14 12 12 13 14 14 13 13 14 14 13 14 14 15 15 14 14 14 14 15 16 17 17 17 18 18 17 17 17 17 18 20 20 20 19 17 16 16 16 16 16 14 15 17 19 21 23 24
8 8 8 9 5 3 6 5 5 4 5 5 4 6 7 8 11 11 12 13 14 14 15 15 15 16 16 16 15 15 16 17 16 16 17 17 17 17 16 15 15 15 16 16 16 16 15 15 15 15 15 16 16 16 15 15 15 16 16 17 18 18 18 19 19 19 18 18 19 20 23 24 22 20 17 16 15 16 16 16 17 19 20 22 23 22 22
7 8 9 9 5 2 6 7 4 2 3 6 9 12 12 12 13 14 16 16 16 16 17 18 19 20 20 20 19 19 20 21 21 20 20 20 21 20 19 18 18 18 18 18 18 18 17 17 17 17 17 18 18 17 17 17 16 17 18 18 19 19 20 20 20 19 19 19 19 20 22 23 22 20 17 16 16 16 15 14 17 20 20 20 21 22 23
5 7 7 3 1 2 7 8 6 6 8 11 14 15 16 16 17 18 18 18 18 18 18 19 20 21 20 20 20 21 22 22 23 23 23 23 24 24 23 23 22 21 21 21 21 20 19 18 18 18 18 19 19 19 19 19 19 19 19 19 20 21 21 20 20 20 20 20 19 19 19 18 18 18 17 16 16 17 16 15 16 19 20 19 19 22 24
5 7 8 8 9 12 14 12 11 13 14 14 16 17 19 20 20 19 19 20 20 20 20 22 23 23 23 23 22 23 24 24 25 26 26 27 27 27 26 26 25 24 24 23 22 22 21 20 19 19 20 20 21 22 21 20 20 21 20 20 21 21 21 21 20 20 20 19 19 19 17 16 16 17 17 17 16 16 17 16 16 18 19 19 20 24 25
9 12 13 15 16 16 15 14 15 16 17 18 18 19 20 20 19 19 20 21 22 23 23 24 25 26 26 26 26 27 27 27 28 28 29 29 29 29 29 28 27 26 25 24 23 23 23 22 22 22 21 22 23 23 23 22 21 21 21 21 22 21 21 21 20 20 20 20 21 20 19 19 18 17 17 17 17 16 16 16 15 14 16 20 25 27 24
9 9 10 12 14 15 16 17 18 18 19 19 19 19 19 19 19 20 22 23 25 26 26 27 28 29 29 29 29 29 28 29 29 30 30 30 30 30 30 29 28 27 26 24 24 24 24 24 23 22 22 23 23 23 22 22 22 22 22 23 23 22 21 21 20 20 21 21 22 21 21 21 19 16 15 17 17 17 19 19 14 13 17 25 28 24 19
9 10 12 16 18 19 19 18 18 18 18 18 18 18 19 20 21 23 25 26 27 27 27 28 29 30 30 31 31 31 30 30 30 30 30 30 29 29 29 28 28 28 27 26 25 25 25 24 23 23 24 24 24 24 24 23 23 23 24 24 24 24 23 22 21 21 20 21 22 21 20 19 16 15 16 18 18 19 18 16 15 17 24 28 26 21 17
9 11 13 15 16 15 16 16 17 17 19 20 20 21 21 23 24 25 25 25 24 24 25 25 26 28 29 29 30 32 32 32 31 30 30 30 29 29 29 28 27 27 28 27 27 26 26 25 25 25 25 25 25 24 24 24 24 25 25 26 26 25 24 23 23 21 20 19 19 20 19 17 16 16 16 16 16 16 14 15 19 24 27 24 21 21 19
8 9 11 13 11 11 14 18 19 20 21 22 23 23 23 24 24 23 24 23 22 22 23 23 23 26 27 27 28 29 30 30 31 30 30 29 29 28 27 27 27 27 27 27 26 27 26 25 25 25 25 25 25 25 25 25 25 25 26 26 25 25 24 24 23 22 20 18 18 19 19 18 17 17 15 14 15 16 18 22 26 27 25 21 18 19 19
10 13 17 18 15 14 17 21 22 22 22 22 22 22 22 22 23 23 24 25 25 25 24 24 24 26 27 27 27 27 27 27 28 27 27 27 27 26 25 25 26 26 27 26 26 26 26 26 26 26 26 26 25 24 24 24 24 24 24 24 24 24 23 22 21 20 20 20 21 19 17 16 17 17 15 16 17 18 22 26 26 24 22 20 18 16 16
15 17 19 19 18 19 21 22 22 21 20 20 21 22 22 23 23 23 24 25 26 26 27 26 25 26 26 27 26 26 25 25 25 25 25 26 26 26 26 26 26 27 27 27 27 27 27 26 26 26 26 26 26 25 25 24 24 25 25 24 24 23 22 22 23 22 22 23 23 20 17 16 16 17 20 25 27 27 27 25 22 20 19 19 18 16 14
15 17 18 18 20 22 22 21 20 19 18 19 22 23 23 24 24 24 25 25 25 25 26 26 25 25 25 26 26 25 25 25 25 25 25 25 25 25 26 26 27 27 27 27 27 27 26 26 27 27 27 27 25 25 25 25 25 25 25 25 25 24 23 23 24 24 26 25 21 18 17 18 21 25 30 34 33 31 27 23 20 19 18 16 15 14 11
15 17 18 19 19 19 18 18 18 18 19 20 22 22 23 24 24 24 24 24 24 23 24 25 25 24 24 25 24 23 23 24 24 24 25 26 26 25 25 26 26 26 26 27 27 27 26 27 27 27 29 30 29 27 27 27 26 27 27 26 25 24 24 24 24 24 25 24 20 17 19 26 32 34 34 34 33 32 30 26 22 19 16 15 14 11 9
14 15 17 17 18 18 18 19 20 21 21 21 21 22 23 24 24 25 24 24 23 23 22 22 22 22 22 22 22 21 22 23 25 26 26 26 25 24 24 24 24 25 25 26 26 25 25 26 26 26 29 31 30 28 27 26 26 26 26 25 25 25 26 26 24 22 23 24 23 24 29 34 36 34 32 32 31 30 28 25 22 19 16 14 11 9 7
14 15 16 15 17 19 20 21 21 21 20 20 19 20 21 22 23 23 22 20 19 17 17 17 18 19 20 21 21 21 22 22 22 22 22 23 23 23 22 22 24 24 24 23 23 23 22 22 21 20 20 20 20 21 23 24 24 23 24 26 27 26 25 25 23 23 26 28 29 32 36 36 34 31 29 28 27 25 23 21 19 17 14 11 9 7 5
15 16 16 16 17 18 19 20 19 18 17 17 17 17 18 19 18 15 13 12 12 13 14 16 17 17 17 17 17 19 20 20 20 21 23 24 25 24 23 22 22 21 20 19 17 15 13 12 11 10 11 11 12 15 17 19 22 24 25 26 25 23 22 23 25 29 33 34 36 37 36 33 29 27 26 25 24 23 21 18 16 13 11 9 7 5 4
17 17 16 16 15 15 16 16 16 15 15 15 15 15 15 15 15 14 13 13 13 14 14 15 15 15 15 15 16 17 18 19 19 19 21 22 24 24 23 21 17 13 11 8 2 3 6 7 7 4 2 1 2 3 7 10 14 19 22 22 22 23 27 30 34 37 38 38 36 34 31 28 27 26 26 24 22 19 16 13 11 10 8 6 4 3 2
18 17 17 15 14 13 13 13 13 13 12 12 13 13 14 14 14 14 14 14 13 13 13 13 14 14 14 15 16 15 13 12 12 12 14 17 16 13 7 3 2 6 9 12 15 16 16 17 17 15 14 16 18 16 15 16 19 23 26 27 29 32 34 37 38 38 37 34 32 30 29 28 26 24 22 19 16 14 12 11 11 10 7 4 3 3 0
17 16 16 14 13 13 13 12 11 11 11 11 12 13 13 13 13 13 13 13 13 14 15 15 16 16 16 15 14 10 6 4 4 4 4 3 2 10 16 19 20 21 22 21 19 18 18 19 20 20 20 22 25 26 26 27 30 33 35 36 37 37 37 38 38 36 34 32 31 31 29 26 22 20 18 16 14 13 13 11 11 9 7 5 4 5 5
14 14 14 13 13 13 12 12 10 10 10 10 11 11 11 11 12 13 13 14 16 17 19 19 19 18 18 18 16 11 9 10 11 11 11 13 17 22 24 23 23 23 22 19 19 19 19 20 20 20 21 23 27 29 29 30 32 33 35 36 37 37 37 37 35 31 28 26 25 25 25 22 19 17 16 14 13 12 12 10 9 7 6 5 5 7 7
10 10 9 8 8 9 10 10 10 9 10 10 9 10 10 10 11 13 14 16 17 19 20 21 21 21 22 23 23 20 19 20 21 21 21 22 24 26 26 24 22 21 19 20 21 22 22 22 22 21 21 24 27 29 29 28 29 29 28 29 31 32 32 31 27 24 23 23 22 21 21 19 17 15 14 13 11 10 10 9 7 6 5 4 5 8 7
6 5 4 5 6 7 8 9 9 9 10 11 11 10 10 9 10 12 13 14 15 18 20 22 23 25 27 29 30 28 27 26 26 27 29 29 27 25 23 22 21 20 18 19 19 19 19 20 22 22 22 23 24 25 25 26 27 27 24 24 25 26 26 24 22 22 22 22 21 20 19 17 14 12 11 10 10 10 8 7 6 5 4 3 3 7 6
3 3 3 5 7 8 8 9 8 7 8 9 10 11 10 9 9 11 11 11 12 14 18 21 24 27 29 30 31 31 31 31 31 33 33 30 25 22 21 22 21 20 18 18 18 16 15 15 17 19 20 21 21 21 21 22 24 25 23 22 22 22 21 20 20 21 21 19 19 18 16 14 13 12 12 11 10 9 8 7 6 4 3 3 3 3 4
3 4 5 5 6 6 6 7 7 6 6 7 8 9 9 8 9 10 10 10 10 11 14 18 22 25 27 28 30 33 34 35 36 37 35 30 24 21 21 22 22 21 21 20 19 17 16 15 15 15 16 18 19 19 18 19 20 20 20 19 19 19 18 17 18 19 19 18 16 14 12 10 11 12 12 11 10 8 6 6 5 4 3 4 4 3 2
3 4 5 5 4 4 5 5 6 7 7 7 8 8 8 8 9 10 10 10 10 11 12 15 18 21 24 26 29 32 34 35 36 37 36 33 29 27 27 28 28 26 24 22 19 18 18 18 18 16 16 17 17 16 16 18 19 18 17 18 18 17 17 18 18 18 17 15 13 11 10 10 10 11 10 8 7 6 4 3 4 5 4 3 3 3 3
4 4 3 3 4 4 5 5 6 7 8 8 8 8 8 8 9 9 9 10 11 11 11 12 14 17 20 23 25 27 30 32 34 35 35 34 33 32 33 33 31 30 27 24 21 18 17 17 17 17 16 15 15 14 13 15 18 19 19 18 18 17 18 19 18 16 15 12 10 9 9 9 8 8 7 6 5 4 3 3 4 4 3 2 2 3 5
3 3 2 2 3 4 5 6 6 7 7 7 8 8 8 8 8 8 9 10 11 12 11 11 12 13 15 18 21 24 25 27 29 31 32 32 32 31 30 29 27 27 27 27 25 23 20 18 18 18 16 15 14 12 11 12 16 18 19 18 17 17 17 16 15 13 11 9 8 7 7 7 6 6 5 5 4 3 2 3 3 3 2 2 2 3 6
3 2 2 2 2 3 4 5 5 6 6 6 7 7 8 8 8 9 9 9 10 11 12 12 12 12 12 13 15 18 20 22 24 26 27 28 28 27 26 24 22 21 22 23 24 25 25 24 23 21 19 17 16 13 10 10 13 16 17 16 16 16 16 14 12 10 9 9 8 8 7 6 5 5 5 4 3 2 2 3 3 2 2 1 2 3 5
4 3 3 1 0 2 2 3 4 4 5 6 6 7 7 8 8 8 9 9 9 9 11 11 12 12 12 11 11 13 15 17 19 21 22 23 23 22 22 21 18 17 17 17 17 19 22 24 25 24 22 20 18 15 12 10 11 14 15 14 14 13 12 10 9 8 9 8 7 6 6 6 5 5 4 2 1 1 2 3 3 2 2 2 3 4 4
5 4 4 3 2 1 1 1 2 3 4 5 5 5 6 7 7 8 8 9 9 9 9 10 11 12 12 11 11 11 12 12 14 15 17 18 19 19 19 18 16 15 16 16 15 15 17 19 20 21 20 19 17 15 13 12 12 12 13 13 13 13 12 11 10 8 7 7 6 6 5 5 4 3 2 1 1 1 2 2 2 2 2 3 4 4 3
8 7 5 5 4 2 1 1 1 1 2 3 4 4 5 6 7 7 8 8 9 10 9 9 10 11 12 12 13 13 13 12 11 11 12 14 15 16 16 16 14 14 15 16 15 15 16 16 16 16 15 15 14 12 11 11 11 11 11 11 11 11 11 10 9 8 7 6 6 5 4 3 3 3 2 1 1 1 1 1 2 2 3 3 3 3 3
9 9 7 6 5 4 3 2 2 0 1 1 3 3 4 4 5 6 7 8 9 10 10 9 9 9 10 11 12 13 14 14 13 12 12 13 15 15 15 14 14 14 14 14 14 15 15 15 14 12 11 11 11 10 10 9 9 8 7 7 7 7 8 7 7 6 6 5 5 4 4 4 3 3 2 2 1 1 1 1 1 1 1 1 1 1 2
10 10 9 8 7 6 5 4 3 2 1 0 1 3 3 3 4 5 6 7 8 9 9 9 10 10 8 8 8 9 11 13 14 14 14 14 14 14 14 13 13 13 12 12 12 13 13 13 12 11 10 10 10 9 9 9 8 7 6 6 5 5 5 5 5 4 4 4 4 4 4 4 3 2 2 1 1 1 2 2 2 1 1 1 0 0 1
11 11 11 10 9 8 6 5 4 4 3 2 1 0 1 2 3 4 5 6 7 8 8 9 10 10 10 9 8 7 8 9 11 12 13 13 13 14 14 12 12 12 13 12 11 11 11 11 10 9 9 9 9 8 8 7 7 6 5 5 5 4 4 4 3 3 2 2 3 3 4 4 3 2 2 2 2 3 4 4 4 3 2 1 1 1 1
10 11 11 10 10 9 8 7 6 5 4 3 2 1 1 1 2 3 4 4 5 6 7 8 9 10 11 11 10 9 8 8 8 9 10 10 10 12 12 12 12 13 13 12 11 11 10 9 8 7 7 7 7 7 7 6 6 5 4 3 4 4 5 5 4 4 3 3 3 3 4 4 4 3 4 4 4 5 6 6 5 4 3 2 2 1 1
10 10 10 11 11 10 10 9 8 7 5 4 3 3 2 2 2 2 2 3 3 4 5 6 7 9 10 11 11 10 10 10 9 10 11 11 11 11 11 11 11 11 11 11 11 10 10 8 7 7 7 7 6 6 6 5 5 5 5 4 4 4 4 4 4 4 4 4 4 4 4 5 5 5 5 5 6 6 6 6 6 5 4 3 3 2 2
12 12 12 12 12 12 11 10 9 7 6 5 4 4 3 2 2 1 1 2 3 3 4 5 5 6 7 8 8 9 9 10 10 10 11 11 11 12 11 10 10 10 10 9 9 10 9 9 8 8 8 8 7 7 6 6 5 4 4 5 5 5 4 3 3 3 4 4 4 4 4 5 6 6 6 7 7 7 7 7 7 7 6 6 5 4 4
14 14 14 14 13 13 13 12 10 7 6 6 6 5 4 3 2 2 3 3 3 3 3 4 5 5 5 5 6 6 7 8 8 9 9 10 10 11 11 11 11 11 10 10 8 9 9 9 9 9 9 9 8 8 8 7 7 6 5 4 4 5 5 5 4 4 4 5 5 5 5 5 6 6 7 7 7 7 7 7 7 7 7 7 7 6 5
16 16 15 15 15 14 13 13 11 9 8 7 7 6 5 4 3 3 3 3 4 4 3 3 4 4 3 3 4 5 6 7 6 7 8 9 8 8 9 10 9 9 10 10 9 9 9 9 9 8 8 7 7 8 8 8 7 6 6 6 6 5 5 5 5 4 4 6 7 7 6 6 7 7 7 7 6 6 6 6 6 6 6 6 6 6 6
Wind_Direction
263 267 270 274 275 275 276 275 270 268 267 267 266 264 266 270 267 269 282 289 283 279 281 276 252 223 233 237 223 217 210 197 193 186 181 186 188 183 173 162 153 143 134 125 116 110 104 103 104 102 98 96 96 96 91 83 71 54 50 119 216 274 296 298 286 271 261 259 263 267 268 264 261 262 265 269 269 265 256 247 244 244 242 241 239 233 232
271 271 270 272 274 273 271 269 267 265 263 263 264 264 265 266 265 268 278 283 282 281 280 278 273 249 241 245 238 229 223 218 211 204 205 210 208 203 190 169 156 144 135 129 121 115 109 105 104 104 102 97 98 99 89 75 55 32 11 355 347 340 339 333 323 307 286 276 267 262 267 272 272 273 276 276 273 266 256 247 243 243 243 243 240 235 235
275 277 278 276 273 272 271 267 264 263 262 261 261 262 263 264 266 271 275 278 279 282 279 272 268 262 256 253 248 241 234 229 223 216 220 225 221 215 201 176 161 151 140 132 123 116 111 109 107 108 108 102 105 105 89 65 26 345 327 324 327 324 321 318 315 309 297 290 283 275 275 278 278 279 278 274 268 264 261 257 252 248 246 246 245 244 243
269 271 273 273 273 274 271 267 264 263 262 262 262 263 264 265 268 275 278 275 273 279 280 275 271 269 263 256 254 253 246 237 231 228 229 227 221 216 207 188 169 158 148 137 127 119 113 112 108 102 103 112 131 122 75 32 334 325 328 328 327 322 312 309 307 300 291 284 281 279 277 277 278 278 273 270 268 264 263 263 262 260 252 247 248 251 249
271 271 273 277 280 277 273 273 273 268 266 266 264 262 263 266 269 271 270 268 275 289 294 287 281 280 277 269 265 264 258 246 239 236 231 227 221 216 210 197 176 163 154 138 130 129 124 124 128 121 104 168 198 250 307 316 317 325 329 323 314 309 307 306 302 296 291 288 286 283 282 281 281 279 276 274 271 266 262 259 261 263 257 250 250 249 248
272 276 281 284 272 261 262 292 309 287 280 275 271 271 273 273 276 285 287 286 287 289 294 294 287 287 292 290 283 279 269 253 243 238 235 235 229 216 206 194 181 170 159 145 137 139 147 169 241 270 274 255 264 293 305 299 301 306 308 306 301 299 300 299 297 293 292 290 287 286 287 286 284 283 280 276 271 267 263 257 257 263 261 256 254 250 246
272 278 277 266 258 258 266 278 297 305 298 291 287 285 283 283 290 296 295 294 292 287 293 304 301 295 292 284 277 278 271 258 249 245 245 240 222 208 205 200 194 188 179 179 185 200 220 256 283 289 280 270 276 285 279 280 290 297 298 297 293 293 294 293 292 291 288 286 286 287 289 288 288 285 280 276 272 266 263 258 255 260 262 258 254 249 243
265 268 256 251 263 274 258 245 244 251 263 272 278 274 271 281 302 301 298 299 299 293 293 299 302 304 296 278 272 283 279 261 253 251 250 236 211 208 215 218 224 238 240 233 234 243 258 272 278 274 272 275 279 277 274 279 286 286 287 288 287 287 287 289 290 287 284 284 286 287 289 288 285 283 279 275 271 264 262 259 252 252 257 256 251 245 240
258 260 257 258 272 272 251 245 312 340 289 292 299 286 280 279 290 298 305 306 303 299 296 295 299 307 302 281 259 211 79 18 335 318 284 207 196 214 225 232 243 250 251 252 253 257 267 269 269 273 277 278 277 276 275 276 276 279 282 284 284 284 285 287 286 281 282 285 287 288 290 288 285 282 279 274 270 264 260 257 253 250 251 249 244 241 236
253 260 264 260 263 266 255 92 59 45 13 352 332 291 285 310 336 313 304 295 299 305 303 302 302 301 294 279 249 149 143 163 0 0 0 89 209 232 236 243 251 254 255 260 266 274 277 274 274 275 274 273 273 272 272 272 272 275 277 279 281 283 285 286 283 280 280 281 284 286 287 287 285 282 278 275 270 263 258 256 254 249 247 246 244 238 228
250 252 259 256 258 271 70 85 66 49 31 11 333 283 276 47 30 358 341 326 325 322 307 301 300 292 284 289 353 26 31 270 275 290 278 259 258 264 259 259 263 267 272 278 282 282 278 274 274 273 270 271 270 268 267 267 268 271 274 277 280 280 282 284 281 279 279 280 283 286 287 288 286 281 277 274 268 262 258 257 254 249 245 242 239 233 224
248 249 254 257 259 276 74 75 32 22 15 355 302 273 281 58 29 359 352 340 333 329 315 305 293 282 283 292 344 353 325 297 286 284 277 269 269 271 268 268 274 280 283 285 285 282 276 274 275 273 272 271 267 265 264 263 264 267 271 274 277 278 281 282 279 278 278 279 282 286 289 290 287 282 276 270 264 259 255 254 255 253 243 230 231 234 231
247 249 254 259 260 45 55 36 1 348 320 282 264 272 341 9 319 316 325 312 305 309 308 303 292 285 292 296 287 282 280 276 278 281 280 278 277 275 274 275 280 284 284 283 281 278 276 276 276 272 269 267 263 263 262 261 262 266 269 272 275 277 278 278 276 276 275 275 277 281 284 285 285 283 276 267 261 256 251 248 247 242 232 224 229 236 234
251 252 259 263 260 52 36 347 316 300 269 255 290 323 331 318 305 309 309 301 297 296 294 294 291 287 288 288 286 286 284 280 278 278 278 279 280 281 282 283 284 283 281 279 277 275 274 273 271 269 266 264 263 263 262 263 266 268 270 271 272 274 275 274 274 272 270 270 272 276 280 284 284 280 273 265 258 252 248 242 235 233 232 230 231 231 225
256 254 256 260 254 44 10 336 320 302 284 312 333 328 314 306 306 305 300 296 296 295 294 295 294 292 291 290 288 287 285 284 282 280 279 279 280 282 286 287 286 285 282 279 277 276 274 272 269 269 266 264 265 264 263 266 270 271 272 272 271 273 273 271 270 268 266 266 266 269 276 281 282 278 270 261 254 248 242 232 226 230 235 235 229 223 213
265 249 250 265 331 323 319 317 306 297 302 312 315 309 302 301 301 297 294 293 292 293 294 296 295 294 292 291 290 288 285 283 282 281 279 278 279 280 283 286 287 286 283 281 278 276 274 272 270 269 268 268 268 267 267 270 272 271 270 269 270 272 271 270 269 266 263 263 263 264 268 273 276 273 265 257 251 241 230 224 227 233 236 231 221 212 203
285 270 277 302 304 296 297 299 294 293 295 296 297 295 292 292 293 293 293 292 291 292 291 291 290 289 287 286 286 285 283 281 281 282 281 280 280 280 280 282 284 283 282 280 280 278 276 275 274 273 272 271 270 269 269 270 270 269 268 267 267 267 267 267 266 264 263 262 261 261 264 267 268 266 260 254 241 225 222 230 235 233 229 218 202 195 189
290 280 277 285 292 295 297 296 293 294 294 293 293 290 287 288 291 293 293 292 292 292 290 288 287 285 284 284 283 282 281 280 280 280 280 281 282 281 281 281 281 281 281 281 280 278 278 276 276 275 273 271 270 270 269 268 266 265 264 264 263 263 263 264 263 263 263 262 262 263 263 261 261 263 260 250 234 226 236 242 231 216 209 198 189 185 181
286 282 281 288 293 293 293 293 293 292 290 289 290 289 290 293 294 293 292 291 290 289 287 286 286 284 283 282 281 280 280 279 278 278 277 277 278 279 279 280 280 281 282 281 280 279 278 277 275 274 273 271 270 269 268 266 264 263 262 260 259 259 260 261 261 262 262 262 263 262 259 259 260 258 252 245 243 248 250 239 215 190 185 185 180 174 168
280 285 290 291 289 287 287 288 288 290 293 299 302 299 296 296 295 292 290 288 287 287 286 284 285 286 285 282 281 280 280 279 278 278 277 277 277 278 279 280 280 280 280 280 281 280 279 277 275 274 272 271 270 269 267 265 263 261 259 257 257 258 258 258 260 262 262 261 260 256 255 258 258 250 248 252 255 252 241 221 198 180 175 175 169 160 152
285 284 288 291 290 289 290 290 294 302 307 309 308 302 296 294 293 291 290 288 286 287 287 286 286 286 285 284 282 280 279 279 278 278 279 280 280 280 280 281 280 279 280 280 280 279 278 278 277 275 273 271 269 266 265 264 263 260 258 257 257 257 256 256 257 257 257 257 256 252 247 246 244 245 249 248 240 226 206 189 184 177 168 163 158 154 151
282 287 301 310 308 298 296 299 305 309 309 306 304 302 300 298 298 298 297 296 294 292 291 290 288 287 287 287 285 282 279 278 278 279 280 281 281 281 281 282 281 281 281 281 281 280 280 280 278 276 273 270 268 266 265 263 261 259 258 256 254 252 251 251 252 252 251 249 249 246 242 238 241 244 236 218 209 203 187 174 170 165 159 155 154 155 154
290 297 306 310 306 296 295 300 304 305 306 306 306 305 305 304 304 304 303 302 300 297 295 293 290 289 290 290 288 285 282 280 280 281 281 282 283 284 284 283 283 283 283 283 282 281 281 281 279 277 274 271 268 266 264 261 259 258 256 254 252 249 247 245 246 247 246 242 237 233 230 231 236 233 212 186 174 169 163 160 158 157 156 153 149 148 150
291 294 300 303 301 298 300 302 303 305 307 307 305 305 306 307 307 305 303 302 301 300 298 294 292 290 290 290 289 286 284 283 283 285 286 286 286 286 285 283 283 283 283 283 282 281 281 280 279 277 275 272 268 265 263 260 258 255 253 251 248 244 242 241 240 240 241 238 229 220 217 218 216 201 174 157 149 147 149 151 152 152 152 148 144 144 144
301 301 304 303 299 298 300 302 302 304 306 306 305 305 306 305 303 301 300 299 299 299 297 294 292 291 291 290 290 288 288 288 288 289 291 290 288 286 284 282 281 281 281 281 281 281 281 279 278 277 275 272 268 264 261 258 256 254 251 247 244 242 242 240 236 234 235 230 217 210 208 196 177 163 155 150 147 146 148 149 150 149 147 143 142 141 138
314 313 314 311 303 301 303 305 307 310 311 310 308 305 303 301 300 298 296 294 294 295 294 292 292 291 290 290 292 293 294 292 290 289 288 287 285 283 281 280 280 281 281 281 281 280 279 278 278 276 271 267 264 260 257 255 252 250 247 244 242 240 237 234 233 232 228 216 198 184 176 166 158 154 153 152 149 148 147 148 149 149 145 140 137 136 135
322 323 325 321 314 311 311 311 311 313 314 313 309 305 303 301 298 295 293 291 291 292 292 293 295 296 296 296 297 296 295 293 290 287 284 283 282 281 281 282 282 282 282 281 281 281 280 278 276 274 270 266 262 260 257 253 249 245 241 238 236 232 228 230 232 224 209 195 181 167 159 155 153 151 150 148 147 146 145 147 148 146 141 138 137 136 135
323 325 325 318 310 307 308 309 310 312 314 317 317 315 313 310 304 297 294 295 298 301 304 306 308 309 309 307 304 300 296 293 291 287 283 281 281 282 282 282 282 282 282 281 279 278 277 276 276 278 276 270 263 259 254 247 240 235 230 229 231 229 226 226 219 199 181 171 163 155 151 150 149 148 146 144 143 143 144 145 146 144 142 140 138 137 137
329 328 323 315 309 307 309 312 315 317 322 330 333 332 332 333 331 325 323 325 327 326 324 321 319 318 316 314 310 304 298 294 290 287 283 281 282 284 286 285 283 280 277 275 275 277 279 282 286 285 279 271 264 259 251 238 228 224 222 223 224 218 207 198 185 169 158 152 149 148 146 146 146 146 146 147 148 150 151 150 148 149 151 151 151 152 140
333 329 323 320 320 321 322 323 326 332 339 344 344 343 346 352 355 355 355 352 347 341 338 333 330 329 327 325 319 310 300 294 291 289 288 288 290 292 292 291 286 276 265 260 267 62 60 54 51 43 22 90 143 196 209 203 200 202 203 203 196 182 171 162 154 148 145 145 146 146 145 144 146 149 151 151 151 151 150 148 149 156 163 161 147 127 76
334 331 330 335 338 337 337 338 342 347 351 352 353 355 358 1 2 1 1 0 357 354 354 351 348 347 344 338 331 320 306 298 297 297 295 293 295 301 317 347 76 110 111 104 94 87 80 71 65 66 75 84 87 95 111 128 139 148 153 155 153 150 146 143 141 141 141 143 144 143 141 142 145 147 146 144 143 146 152 155 156 161 168 161 112 103 50
334 332 336 343 347 348 352 356 357 360 3 6 11 13 13 13 15 16 15 16 19 22 22 18 11 6 2 357 350 343 335 339 348 338 314 305 52 87 92 97 105 109 107 100 91 83 78 72 68 71 78 81 79 81 89 100 110 117 122 125 127 128 130 131 132 131 130 131 134 136 136 136 137 138 140 143 147 154 160 163 161 163 168 166 157 174 209
336 336 340 346 351 356 6 13 16 21 24 24 25 28 28 29 34 37 37 39 43 42 36 28 22 18 19 20 21 30 56 71 72 78 89 92 90 90 94 101 109 111 108 99 88 82 80 78 76 77 81 85 88 89 91 93 99 106 112 116 119 122 124 125 124 124 125 129 133 135 136 137 137 139 142 146 149 153 156 158 159 159 156 161 194 224 250
341 340 342 351 359 7 19 29 36 40 41 40 39 38 33 33 40 48 50 49 47 43 37 31 28 28 33 39 44 52 65 71 71 73 77 81 85 89 94 101 107 108 104 97 91 86 83 82 81 82 86 92 98 101 101 99 99 102 110 116 118 121 123 124 124 125 129 131 133 135 135 135 135 135 138 140 144 149 153 153 154 158 155 170 233 255 265
354 358 8 30 40 41 45 49 50 50 51 53 52 44 34 29 33 38 40 39 39 39 39 39 39 41 44 48 52 56 59 62 64 69 75 80 85 91 96 100 100 100 98 93 88 83 82 83 84 86 89 94 99 101 104 105 103 101 104 109 113 117 122 123 123 124 125 126 129 130 130 129 127 127 132 140 142 142 144 142 140 144 147 161 263 281 282
23 45 62 67 65 62 60 59 56 52 48 44 37 30 25 22 21 21 20 20 23 30 35 41 46 49 49 50 52 54 55 57 62 70 77 81 85 90 93 92 90 89 87 84 81 81 83 85 85 85 89 94 97 98 102 108 108 104 102 105 110 114 118 119 121 126 130 131 132 134 136 139 136 128 125 130 132 131 138 146 146 141 148 173 228 279 305
68 77 86 85 77 65 54 43 40 40 37 27 18 14 12 11 12 15 14 10 10 16 22 31 41 49 51 53 56 59 58 59 63 69 75 80 85 88 85 80 77 78 77 75 76 83 90 93 91 88 89 93 95 96 101 110 112 106 101 103 108 109 110 116 126 134 138 139 141 143 145 148 146 141 141 147 150 150 157 173 189 207 227 239 243 246 275
90 94 98 91 74 53 32 20 20 27 30 27 20 16 14 14 16 18 18 15 14 17 19 22 32 42 49 55 61 65 65 65 65 67 70 74 77 78 74 70 67 66 66 68 73 84 94 98 99 97 92 90 92 92 97 110 119 117 109 108 112 115 121 131 141 148 151 154 160 163 158 152 153 159 165 170 174 176 178 196 220 229 235 253 271 271 263
105 113 108 84 65 51 38 26 21 22 26 26 22 17 17 18 20 23 26 24 22 24 26 25 26 33 41 49 56 62 67 70 70 69 69 70 71 71 69 66 64 63 64 66 71 78 85 90 93 91 87 86 88 89 95 111 127 134 133 130 129 132 138 146 152 157 161 165 169 170 167 162 163 169 173 171 173 179 186 204 223 230 232 240 281 287 278
138 140 116 79 63 49 36 27 24 27 28 26 23 21 22 23 25 29 32 31 27 26 30 31 28 28 32 39 45 51 58 65 71 73 73 72 71 70 69 67 65 64 65 66 68 71 74 78 80 80 78 78 81 86 96 116 131 140 145 146 146 147 150 153 157 159 160 158 155 152 152 152 153 155 158 159 160 168 195 220 223 219 222 235 261 278 279
183 171 139 90 53 38 33 28 26 26 24 23 25 27 28 30 32 33 34 34 31 29 32 39 42 38 34 34 38 41 45 53 62 69 72 72 70 69 67 65 63 61 62 63 64 67 71 73 73 73 72 72 72 75 86 115 136 143 148 154 159 161 162 163 164 160 150 143 141 140 141 144 146 145 145 151 163 184 211 220 213 199 196 229 253 260 269
195 195 186 188 322 7 22 23 19 21 24 27 31 31 30 32 36 36 36 37 35 32 33 41 47 46 40 38 41 42 41 42 49 58 65 69 70 69 68 66 64 64 65 64 62 63 66 68 68 68 68 68 69 71 78 101 128 140 143 145 147 149 151 150 148 141 134 132 134 136 136 136 135 134 138 151 187 208 201 207 214 209 205 216 227 237 255
200 203 206 213 233 284 349 3 7 19 27 30 30 30 30 32 36 38 39 40 43 42 38 38 44 48 48 48 52 53 49 43 41 44 52 61 68 71 73 72 70 70 70 69 66 65 66 67 66 65 63 62 64 70 77 88 103 117 125 127 128 128 128 127 124 122 123 125 127 128 130 132 134 141 160 183 191 182 189 217 250 253 245 243 239 232 240
208 210 213 218 224 227 230 250 307 5 29 32 32 35 34 34 36 39 40 40 44 47 47 43 43 48 51 54 57 59 59 58 54 49 51 58 63 67 71 73 72 71 71 71 70 69 68 68 68 67 64 62 60 62 68 76 84 92 99 105 109 114 117 119 121 124 129 134 136 138 140 142 145 153 167 180 191 204 231 288 297 286 276 269 254 236 235
210 210 211 214 218 221 220 223 230 220 69 39 33 38 38 36 36 38 39 39 42 46 48 50 50 48 48 49 50 49 52 57 61 60 59 61 62 61 62 64 64 63 62 65 68 68 67 67 66 66 69 71 71 71 73 76 79 81 85 91 98 104 107 113 121 129 136 144 152 155 149 145 150 163 178 190 204 236 258 277 283 290 289 281 240 223 239
208 209 210 211 214 215 214 217 217 209 200 233 19 32 39 41 40 39 40 43 45 43 44 50 54 55 55 55 50 43 41 46 51 52 50 51 55 58 58 60 63 65 63 62 63 65 67 67 65 64 66 70 72 72 74 79 83 87 91 94 98 104 109 119 133 149 159 165 164 155 144 143 154 174 182 166 142 137 150 152 145 118 81 60 45 334 289
211 210 210 210 212 212 209 210 214 217 223 239 260 0 37 45 51 50 47 49 52 49 48 51 56 58 61 66 70 65 51 44 45 49 47 43 42 46 49 48 52 58 60 59 59 62 63 63 65 67 69 72 76 77 76 77 79 84 93 103 111 114 111 110 117 131 144 145 138 133 130 124 118 118 120 114 114 124 131 132 128 118 105 85 52 25 357
214 211 209 209 212 213 210 211 217 226 232 231 213 188 149 81 72 63 53 50 54 52 48 49 53 56 58 61 65 71 72 65 59 59 60 55 48 46 44 42 44 49 49 46 49 56 60 57 56 59 65 70 77 82 86 89 89 88 90 101 116 118 112 101 89 83 88 99 111 125 131 124 113 111 116 112 107 110 114 114 109 104 97 87 74 58 47
218 214 210 207 209 212 212 213 220 227 226 213 198 196 193 159 109 75 52 53 61 60 52 48 48 49 51 53 55 60 66 69 67 65 64 64 63 60 53 47 48 53 52 40 33 38 47 51 48 49 55 63 67 69 72 78 87 93 93 89 88 98 111 112 100 90 91 95 99 111 125 126 121 119 115 105 97 98 102 101 96 91 85 80 81 84 88
223 220 216 212 211 213 213 214 217 221 217 208 201 202 201 189 165 140 109 92 86 76 67 63 60 54 51 52 54 55 58 62 64 63 61 59 60 64 65 61 58 61 62 51 32 23 25 30 33 37 43 47 49 53 56 55 55 63 79 86 86 86 90 94 97 102 101 94 92 105 120 120 112 105 98 94 95 101 101 94 85 79 72 64 63 74 86
226 223 220 217 215 215 214 214 216 217 214 207 204 204 205 200 180 162 153 139 123 108 89 79 76 70 60 53 55 60 65 65 62 63 65 61 53 52 57 60 60 60 61 57 43 27 20 20 24 34 43 41 36 37 46 51 48 45 48 57 68 78 81 77 78 91 103 105 111 122 123 109 101 101 98 94 96 103 105 97 87 79 69 59 53 55 64
229 225 222 220 218 217 216 215 216 216 212 206 203 203 204 195 180 178 176 153 134 135 141 128 108 96 84 66 53 56 67 74 73 73 78 78 70 58 55 57 58 58 60 58 52 43 35 27 22 25 36 45 47 47 49 52 53 54 58 58 55 56 64 70 70 71 84 100 112 118 112 98 97 108 113 107 100 100 103 97 88 79 72 63 54 48 47